Lid_Strength_Index
11 11 10 10 9 9 10 10 9 10 10 10 9 7 6 6 3 3 2 1 1 1 2 2 2 2 2 2 3 4 4 4 4 4 5 4 4 4 4 4 4 4 4
12 11 10 10 11 11 10 11 10 11 11 10 9 8 8 7 5 4 4 4 1 2 2 2 3 3 2 2 3 3 5 4 4 5 6 6 6 7 6 6 6 6 6
12 12 12 12 12 12 12 11 11 11 11 11 10 9 7 6 6 7 6 5 3 2 2 2 3 3 2 3 3 3 4 4 5 5 5 9 9 8 6 7 6 6 6
12 12 12 12 12 12 12 11 11 11 11 11 11 11 10 10 9 8 7 6 4 3 1 2 2 2 2 3 3 3 4 4 5 5 5 7 7 8 8 7 7 7 7
12 12 12 12 12 12 12 12 12 12 12 12 11 11 12 10 9 8 8 7 6 4 4 1 2 2 2 2 3 3 3 3 4 5 5 6 6 6 7 7 6 5 4
13 13 12 12 13 13 13 12 12 12 12 12 12 13 12 12 11 10 9 9 7 6 5 4 1 1 2 2 2 2 3 3 3 4 5 5 6 6 6 7 6 6 5
13 13 14 14 13 14 13 12 12 12 12 12 12 12 12 12 12 11 11 10 9 8 7 6 5 2 1 1 1 2 2 3 3 3 4 4 4 4 5 5 5 6 5
13 14 14 14 14 14 13 13 12 12 12 12 12 12 12 12 12 11 11 10 10 9 7 6 5 4 2 1 1 2 2 2 2 2 3 3 3 3 3 5 5 7 6
14 14 14 14 14 14 13 13 12 12 12 12 12 12 12 12 12 11 10 9 8 7 7 6 5 4 4 2 1 2 2 2 2 2 2 2 2 3 3 3 4 5 7
14 14 14 15 15 14 14 13 13 12 12 12 11 11 12 11 11 10 10 10 9 8 7 6 4 3 4 2 1 2 2 2 3 3 3 4 5 5 5 4 4 4 5
14 14 14 15 15 15 15 14 14 13 12 12 11 11 11 11 11 11 10 9 9 9 8 7 5 5 4 3 3 4 4 5 6 6 6 7 7 8 8 8 7 8 7
13 14 14 15 16 16 15 15 14 14 13 12 11 12 11 11 11 11 10 10 9 8 8 7 7 6 6 6 5 6 7 7 8 8 8 9 9 9 9 9 10 10 10
13 13 14 15 16 16 16 16 15 15 14 13 12 11 12 12 12 11 11 10 10 9 9 8 8 9 8 8 8 9 10 10 10 9 9 9 9 10 11 11 12 12 12
15 14 14 15 16 16 16 16 16 16 15 14 12 12 12 12 12 11 11 11 11 10 10 9 9 9 9 9 9 10 10 11 11 11 11 11 11 11 12 12 13 14 14
16 15 13 19 19 17 18 16 16 15 15 15 13 13 12 12 12 12 12 11 11 11 10 10 10 10 9 9 9 10 10 11 12 12 12 12 12 12 12 13 13 14 15
16 16 17 17 18 17 18 15 17 15 15 15 13 13 13 13 13 13 12 12 12 12 11 11 11 11 10 10 10 10 11 12 12 13 13 12 12 12 11 12 12 13 15
14 14 15 16 17 17 15 16 16 15 15 14 13 13 13 13 13 13 13 13 13 12 12 12 11 12 11 10 11 11 12 12 12 12 13 13 14 14 13 12 12 13 12
13 14 14 15 16 16 18 15 15 15 14 13 13 14 14 15 14 13 14 13 13 13 13 12 12 12 11 11 11 12 13 13 13 13 14 14 15 14 14 15 14 15 14
12 13 14 14 16 17 16 15 15 15 15 15 15 15 15 15 15 14 14 14 13 13 13 13 13 13 13 12 12 13 14 14 14 13 13 13 14 13 13 14 14 13 13
12 13 14 15 16 16 16 15 15 16 16 15 15 15 15 15 16 15 16 15 15 14 14 14 15 15 14 12 12 14 14 15 14 14 14 14 14 12 12 14 14 15 14
13 14 15 15 16 16 16 16 16 17 16 16 16 17 16 15 15 16 16 16 16 16 17 17 17 16 15 13 12 12 14 14 15 14 14 13 11 11 11 12 14 15 14
13 14 15 15 16 16 16 16 17 17 18 18 18 19 19 16 16 17 18 18 18 18 18 17 18 18 17 13 11 12 12 12 15 14 13 13 11 11 11 13 12 13 14
14 14 16 17 19 19 18 17 17 19 20 20 20 18 18 19 18 19 19 19 20 20 18 17 16 15 18 17 11 11 11 12 15 15 13 12 12 12 12 13 13 15 15
17 18 18 19 18 19 18 17 20 20 19 20 21 19 17 17 21 18 18 19 20 20 19 19 18 17 16 19 19 16 15 14 15 13 14 14 15 14 14 15 15 15 16
19 19 18 17 17 20 18 18 20 19 19 20 20 20 18 18 19 19 18 18 19 18 20 20 20 21 21 19 16 17 18 19 17 22 19 19 24 21 18 17 16 16 16
20 19 18 18 17 18 18 19 19 19 18 19 19 18 18 19 19 19 19 15 14 14 13 14 17 19 16 14 13 13 13 13 14 23 21 22 28 26 21 19 18 17 17